Tracking 19730 objects as of 27-Jun-2019
HD Live streaming from Space Station
objects crossing your sky now

DELTA 1 DEB

Track DELTA 1 DEB now!
10-day predictions


NORAD ID: 13574
Int'l Code: 1978-026FM
Perigee: 824.4 km
Apogee: 880.9 km
Inclination: 98.7 °
Period: 101.8 minutes
Semi major axis: 7223 km
RCS: 0.0387 m2 (small)
Launch date: March 5, 1978
Source: United States (US)
Launch site: AIR FORCE WESTERN TEST RANGE (AFWTR)

Note: This is SATELLITE DEBRIS
aabbcc
Your satellite tracking list
Your tracking list is empty




NASA's NSSDC Master Catalog

Two Line Element Set (TLE):
1 13574U 78026FM  19177.48192015  .00000061  00000-0  54151-4 0  9995
2 13574  98.7337 138.2895 0039102 186.3830 294.9502 14.14057631946382
Source of the keplerian elements: AFSPC